Terminal Aerodrome Forecast
Issued by NWS

Home | Current Version | Previous Version | Text Only | Print | Product List | Glossary On
Versions: 1 2 3 4 5 6 7 8 9 10 11 12 13 14 15 16 17 18 19 20 21 22 23 24 25 26 27 28 29 30 31 32 33 34 35 36 37 38 39 40 41 42 43 44
000
FTUS45 KBOU 212327
TAFBJC
TAF
KBJC 212327Z 2200/2224 30007KT P6SM SCT050 BKN100
      TEMPO 2202/2205 -SHRA BKN050
     FM220500 29006KT P6SM VCSH SCT050 BKN080
     FM220800 28005KT P6SM SCT080 BKN140
     FM221500 15007KT P6SM SCT060 BKN140 PROB30 2215/2219 -SHRA
      BKN060
     FM221900 30010KT P6SM SCT070 BKN100 PROB30 2219/2224 VRB15G30KT
      -TSRA BKN060CB=

USA.gov is the U.S. government's official web portal to all federal, state and local government web resources and services.